Regional Weather Roundup
Issued by NWS

Home | Current Version | Previous Version | Graphics & Text | Print | Product List | Glossary On
Versions: 1 2 3 4 5 6 7 8 9 10 11 12 13 14 15 16 17 18 19 20 21 22 23 24 25 26 27
000
ASUS45 KCYS 252310
RWRWY

WYOMING REGIONAL WEATHER ROUNDUP
NATIONAL WEATHER SERVICE CHEYENNE WY
500 PM MDT WED MAY 25 2016

NOTE:  "FAIR" INDICATES FEW OR NO CLOUDS BELOW 12,000 FEET
WITH NO SIGNIFICANT WEATHER AND/OR OBSTRUCTIONS TO VISIBILITY.

WYZ001-260000-
YELLOWSTONE NATIONAL PARK

CITY           SKY/WX    TMP DP  RH WIND       PRES   REMARKS
LK YELLOWSTONE   N/A     44  35  70 VRB3      30.08F
W YELLOWSTONE  NOT AVBL

$$
WYZ002>013-054>058-071-098>099-260000-
NORTHERN WYOMING

CITY           SKY/WX    TMP DP  RH WIND       PRES   REMARKS
JACKSON        NOT AVBL
CODY           FAIR      55  43  62 N10       29.93S
GREYBULL       PTSUNNY   61  43  51 S5        29.89F
WORLAND        CLOUDY    61  43  51 NE6       29.90F
SHERIDAN       FAIR      58  45  62 S7        29.89F
BUFFALO        FAIR      54  45  71 CALM      29.94F
GILLETTE       FAIR      58  43  57 N16       29.94R
HULETT         LGT RAIN  52  45  76 N18G29    29.93R
NEWCASTLE      FAIR      64  34  32 NW8       29.91S

$$
WYZ014>020-022>026-101>103-260000-
CENTRAL WYOMING

CITY           SKY/WX    TMP DP  RH WIND       PRES   REMARKS
BIG PINEY      FAIR      49  38  65 NW16      30.08R
PINEDALE       LGT RAIN  45  36  70 NW8G23    30.09R
DUBOIS         MOCLDY    50  36  57 NW12      30.01R
LANDER         PTSUNNY   60  32  34 S3        29.91S
RIVERTON       FAIR      62  36  37 S5        29.93F
CASPER         CLOUDY    54  40  59 NW8       29.94R
DOUGLAS          N/A    N/A N/A N/A MISG      29.94S

$$
WYZ021-027>030-104>119-260000-
SOUTHERN WYOMING

CITY           SKY/WX    TMP DP  RH WIND       PRES   REMARKS
EVANSTON       FAIR      55  34  45 W16       30.07S
KEMMERER         N/A     50  34  53 NW12G17   30.10R
FORT BRIDGER   PTCLDY    52  39  62 NW16      30.11R THUNDER
ROCK SPRINGS   CLOUDY    49  32  52 SW16      30.06S
DIXON          FAIR      61  27  27 W8        30.05F
RAWLINS        FAIR      57  29  34 W21G26    30.04S
SARATOGA       MOCLDY    59  32  36 W22G33    30.05R
LARAMIE        FAIR      60  24  25 W21G32    30.02F
CHEYENNE       PTSUNNY   61  38  42 SW5       29.97S
TORRINGTON     FAIR      73  27  18 NW14G26   29.89S
PINE BLUFFS    FAIR      64  34  32 E5        29.96F

$$




USA.gov is the U.S. government's official web portal to all federal, state and local government web resources and services.